This is the latest recevied weather packets stored in our database for station/object SP9KB-13. If no packets are shown the sender has not sent any weather packets the latest 10 day(s).
| Time | Temp. | Humidity | Pressure | Rain* | Wind** | Luminosity | Snow |
|---|---|---|---|---|---|---|---|
| 1777570969 | 4.44° C | 58% | 1007.1 hPa | 0 mm | - | - | - |
| 1777570668 | 5° C | 57% | 1007.1 hPa | 0 mm | - | - | - |
| 1777570367 | 5.56° C | 55% | 1007 hPa | 0 mm | - | - | - |
| 1777570067 | 5.56° C | 53% | 1007 hPa | 0 mm | - | - | - |
| 1777569766 | 6.67° C | 51% | 1007 hPa | 0 mm | - | - | - |
| 1777569466 | 7.22° C | 43% | 1006.9 hPa | 0 mm | - | - | - |
| 1777569165 | 7.22° C | 45% | 1006.8 hPa | 0 mm | - | - | - |
| 1777568864 | 8.33° C | 42% | 1006.9 hPa | 0 mm | - | - | - |
| 1777568564 | 8.89° C | 39% | 1007 hPa | 0 mm | - | - | - |
| 1777568263 | 8.89° C | 38% | 1006.8 hPa | 0 mm | - | - | - |
| 1777567962 | 8.89° C | 39% | 1006.9 hPa | 0 mm | - | - | - |
| 1777567662 | 9.44° C | 39% | 1007 hPa | 0 mm | - | - | - |
| 1777567361 | 9.44° C | 37% | 1006.7 hPa | 0 mm | - | - | - |
| 1777567061 | 9.44° C | 38% | 1006.9 hPa | 0 mm | - | - | - |
| 1777566760 | 9.44° C | 38% | 1006.9 hPa | 0 mm | - | - | - |
| 1777566460 | 9.44° C | 37% | 1007 hPa | 0 mm | - | - | - |
| 1777566159 | 9.44° C | 38% | 1006.8 hPa | 0 mm | - | - | - |
| 1777565858 | 9.44° C | 38% | 1006.9 hPa | 0 mm | - | - | - |
| 1777565557 | 9.44° C | 37% | 1006.8 hPa | 0 mm | - | - | - |
| 1777565257 | 10° C | 38% | 1006.9 hPa | 0 mm | - | - | - |
| 1777564956 | 10.56° C | 38% | 1006.9 hPa | 0 mm | - | - | - |
| 1777564656 | 10° C | 38% | 1006.9 hPa | 0 mm | - | - | - |
| 1777564355 | 10.56° C | 38% | 1007 hPa | 0 mm | - | - | - |
| 1777564055 | 10.56° C | 39% | 1007 hPa | 0 mm | - | - | - |
| 1777563754 | 10° C | 37% | 1007.1 hPa | 0 mm | - | - | - |
* Rain latest hour (hover to see other rain measurements)
** Current wind speed in m/s (hover to see current wind gust speed)